Change the Weather History Date:

Sunday, July 7, 2013

  Actual Average Record
Temperature  
Mean Temperature 77 °F 82 °F  
Max Temperature 80 °F 91 °F 100 °F (2000)
Min Temperature 73 °F 73 °F 64 °F (1972)
Cooling Degree Days 12 17  
Month to date cooling degree days 91 117  
Year to date cooling degree days 941 1006  
Since 1 June cooling degree days 577 561  
Growing Degree Days 26 (Base 50)    
Moisture  
Dew Point 72 °F    
Average Humidity 90    
Maximum Humidity 94    
Minimum Humidity 85    
Precipitation  
Precipitation 1.02 in 0.24 in 5.27 in (1910)
Month to date precipitation 4.78 1.60  
Year to date precipitation 37.43 34.55  
Sea Level Pressure  
Sea Level Pressure 30.09 in    
Wind  
Wind Speed 4 mph (SE)    
Max Wind Speed 16 mph    
Max Gust Speed 21 mph    
Visibility 8 miles    
Events Fog , Rain    
T = Trace of Precipitation, MM = Missing Value Source: NWS Daily Summary

Daily Weather History Graph

Daily Weather History Graph

Search for Another Location

Airport or City:

Trip Planner

Search our weather history database for the weather conditions in past years. The results will help you decide how hot, cold, wet, or windy it might be!

Date:

Astronomy

Jul. 07, 2013 Rise Set
Actual Time 5:56 AM CDT 7:59 PM CDT
Civil Twilight 5:29 AM CDT 8:26 PM CDT
Nautical Twilight 4:55 AM CDT 8:59 PM CDT
Astronomical Twilight 4:20 AM CDT 9:35 PM CDT
Moon 5:28 AM CDT (7/7) 7:28 PM CDT (7/7)
Length of Visible Light 14h 57m
Length of Day
14h 02m
Waning Crescent, 0% of the Moon is Illuminated
Jul 7
Waning Crescent
Jul 8
New
Jul 15
First Quarter
Jul 22
Full
Jul 29
Last Quarter

Hourly Weather History & Observations

Time (CDT) Temp. Heat Index Dew Point Humidity Pressure Visibility Wind Dir Wind Speed Gust Speed Precip Events Conditions
12:14 AM 75.2 °F - 73.4 °F 94% 30.07 in 10.0 mi ESE 3.5 mph - N/A   Mostly Cloudy
12:26 AM 75.2 °F - 73.4 °F 94% 30.06 in 10.0 mi East 4.6 mph - N/A   Partly Cloudy
12:56 AM 75.9 °F - 73.0 °F 91% 30.05 in 10.0 mi ESE 3.5 mph - N/A   Mostly Cloudy
1:04 AM 75.2 °F - 73.4 °F 94% 30.06 in 10.0 mi ESE 4.6 mph - N/A   Mostly Cloudy
1:13 AM 75.2 °F - 73.4 °F 94% 30.06 in 10.0 mi ESE 3.5 mph - N/A   Mostly Cloudy
1:26 AM 75.2 °F - 73.4 °F 94% 30.05 in 9.0 mi ESE 3.5 mph - 0.01 in Rain Light Rain
1:56 AM 75.9 °F - 73.0 °F 91% 30.04 in 8.0 mi East 3.5 mph - 0.02 in Rain Light Rain
2:33 AM 75.2 °F - 73.4 °F 94% 30.04 in 1.8 mi ESE 4.6 mph - 0.12 in Rain Heavy Rain
2:43 AM 75.2 °F - 73.4 °F 94% 30.04 in 2.0 mi SSE 8.1 mph - 0.26 in Rain Heavy Rain
2:56 AM 73.9 °F - 71.1 °F 91% 30.03 in 4.0 mi SE 6.9 mph - 0.33 in Rain Light Rain
3:56 AM 73.9 °F - 71.1 °F 91% 30.04 in 10.0 mi East 3.5 mph - 0.00 in   Overcast
4:56 AM 73.9 °F - 71.1 °F 91% 30.04 in 10.0 mi East 3.5 mph - 0.00 in Rain Light Rain
5:56 AM 73.9 °F - 71.1 °F 91% 30.05 in 10.0 mi Calm Calm - 0.01 in   Mostly Cloudy
6:56 AM 73.9 °F - 72.0 °F 93% 30.06 in 10.0 mi Calm Calm - N/A   Mostly Cloudy
7:32 AM 75.2 °F - 73.4 °F 94% 30.08 in 10.0 mi Calm Calm - N/A   Mostly Cloudy
7:47 AM 75.2 °F - 73.4 °F 94% 30.08 in 10.0 mi East 5.8 mph - N/A   Mostly Cloudy
7:56 AM 75.9 °F - 73.0 °F 91% 30.08 in 10.0 mi East 4.6 mph - N/A   Mostly Cloudy
8:29 AM 75.2 °F - 73.4 °F 94% 30.10 in 10.0 mi East 6.9 mph - N/A   Mostly Cloudy
8:56 AM 78.1 °F - 73.9 °F 87% 30.09 in 10.0 mi ESE 6.9 mph - N/A   Mostly Cloudy
9:41 AM 80.6 °F 85.4 °F 73.4 °F 79% 30.10 in 10.0 mi East 5.8 mph - N/A   Mostly Cloudy
9:56 AM 79.0 °F - 72.0 °F 79% 30.10 in 8.0 mi East 8.1 mph - 0.00 in Rain Light Rain
10:42 AM 73.4 °F - 69.8 °F 88% 30.12 in 3.0 mi SSE 10.4 mph 17.3 mph 0.00 in Rain Rain
10:46 AM 73.4 °F - 69.8 °F 88% 30.12 in 2.0 mi South 10.4 mph - 0.00 in Rain Heavy Rain
10:50 AM 73.4 °F - 69.8 °F 88% 30.12 in 0.8 mi South 10.4 mph - 0.02 in Rain Heavy Rain
10:56 AM 73.0 °F - 70.0 °F 90% 30.11 in 0.5 mi South 6.9 mph 16.1 mph 0.13 in Fog , Rain Heavy Rain
11:05 AM 73.4 °F - 69.8 °F 88% 30.12 in 2.0 mi WSW 4.6 mph - 0.22 in Rain Heavy Rain
11:19 AM 73.4 °F - 69.8 °F 88% 30.12 in 3.0 mi SW 6.9 mph - 0.28 in Rain Heavy Rain
11:56 AM 73.9 °F - 71.1 °F 91% 30.12 in 5.0 mi South 3.5 mph - 0.39 in Rain Rain
12:56 PM 73.9 °F - 72.0 °F 93% 30.12 in 5.0 mi ESE 4.6 mph - 0.07 in Rain Light Rain
1:09 PM 75.2 °F - 71.6 °F 89% 30.12 in 7.0 mi ESE 4.6 mph - 0.00 in Rain Light Rain
1:22 PM 75.2 °F - 73.4 °F 94% 30.11 in 6.0 mi ESE 5.8 mph - 0.00 in Rain Light Rain
1:56 PM 75.9 °F - 73.0 °F 91% 30.10 in 8.0 mi SE 6.9 mph - 0.01 in Rain Light Rain
2:56 PM 77.0 °F - 73.0 °F 88% 30.10 in 10.0 mi SSE 3.5 mph - 0.01 in Rain Light Rain
3:03 PM 77.0 °F - 73.4 °F 89% 30.10 in 10.0 mi Calm Calm - 0.00 in Rain Light Rain
3:56 PM 78.1 °F - 73.9 °F 87% 30.09 in 10.0 mi ESE 3.5 mph - 0.01 in Rain Light Rain
4:56 PM 78.1 °F - 73.9 °F 87% 30.09 in 10.0 mi East 3.5 mph - 0.00 in Rain Light Rain
5:56 PM 78.1 °F - 73.9 °F 87% 30.07 in 10.0 mi ENE 3.5 mph - 0.03 in Rain Light Rain
6:56 PM 77.0 °F - 73.9 °F 90% 30.09 in 10.0 mi SE 5.8 mph - 0.01 in   Scattered Clouds
7:56 PM 77.0 °F - 73.9 °F 90% 30.10 in 10.0 mi SE 6.9 mph - N/A   Overcast
8:56 PM 75.9 °F - 73.0 °F 91% 30.11 in 10.0 mi SSE 3.5 mph - N/A   Mostly Cloudy
9:56 PM 75.9 °F - 72.0 °F 87% 30.13 in 10.0 mi Calm Calm - N/A   Mostly Cloudy
10:56 PM 75.0 °F - 73.0 °F 94% 30.14 in 10.0 mi Calm Calm - N/A   Mostly Cloudy
11:56 PM 75.0 °F - 73.0 °F 94% 30.14 in 10.0 mi Calm Calm - N/A   Overcast